Location: Chippewa Lake
(41.0698°N, 81.9010°W)
Time: 22:05:48
(UTC+00:00)

Cosmos 1420 Rocket - Pass Details

Date: 09 May 2021
Orbit: 754 x 781 km, 74.0° (Epoch: 16 June)

Event Time Altitude Azimuth Distance (km) Brightness Sun altitude
Exits shadow 09:28:17 - 208° (SSW) 2,573 6.2 -8.7°
Reaches altitude 10° 09:29:02 10° 209° (SSW) 2,288 5.9 -8.6°
Maximum altitude 09:34:10 65° 291° (WNW) 834 4.1 -7.7°
Drops below altitude 10° 09:39:20 10° 14° (NNE) 2,291 7.2 -6.9°
Sets 09:41:44 0° 17° (NNE) 3,218 8.0 -6.5°
